Content
SEND FEEDBACK

Daily
Averages
Monthly
Summary
Mauritania

NOUADHIBOU, MAURITANIA


Home > Africa > Mauritania
Elevation: 10 feet     Latitude: 20 56N     Longitude: 017 02W

WEATHER
 
SELECT A DAY
Number of Records: 122,886;   Date Range: 7/1/96 - 12/23/14
 
SHARE

PRINT THIS DATA

[ ← Previous Day ]
WEATHER ALMANAC - JANUARY 29, 2013
[ Next Day → ]
[ °C ]   °F
Weather ElementAverageHighLow
Temperature71.9 °F84.2 °F (5:00 pm)60 °F (3:00 am)
Dewpoint45.2 °F58 °F (3:00 am)32 °F (5:00 pm)
Humidity40.2 %89 % (3:00 am)12 % (3:00 pm)
Barometer30.12 in30.19 in (12:00 pm)30.06 in (5:00 pm)
Wind Speed8.7 mph11.5 mph (9:00 am)
Weather ElementAverage
Visibility5.1 mi
Wind DirectionSSE (159.2 °)

Weather ElementTotal
Precipitation---
Cooling Degree Days7.1 (Base 65)
Growing Degree Days22.1 (Base 50)
Averaged from 26 records on January 29, 2013
WEATHER CONDITIONS BREAKOUT
WIND DIRECTION BREAKOUT
WEATHER BY HOUR - JANUARY 29, 2013
[ °C ]   °F
Local TimeTemperatureDewpointHumidityBarometerVisibilityWind DirectionWind SpeedGust SpeedPrecipitationEventsConditions
1:00 AM62.6 °F55.4 °F77 %30.12 in5.0 miNorth (10°)10.4 mph
3:00 AM60.0 °F58.0 °F89 %30.14 in5.0 miNorth9.2 mph
4:00 AM60.8 °F48.2 °F63 %30.09 in5.0 miNorth (840°)9.2 mph
5:00 AM62.6 °F48.2 °F59 %30.09 in5.0 miEast (90°)8.1 mph
6:00 AM62.0 °F47.0 °F46 %30.13 in5.0 miENE (60°)10.4 mph
8:00 AM62.6 °F41.0 °F45 %30.12 inENE (70°)10.4 mph
9:00 AM66.2 °F42.8 °F43 %30.15 inEast (80°)11.5 mphClear
9:00 AM65.0 °F46.0 °F40 %30.17 in5.0 miENE (70°)10.4 mph
10:00 AM68.0 °F44.6 °F43 %30.18 inEast (80°)10.4 mphClear
11:00 AM73.4 °F39.2 °F29 %30.18 inENE (70°)10.4 mphClear
12:00 PM77.0 °F40.0 °F17 %30.19 in5.0 miENE (70°)10.4 mph
12:00 PM78.8 °F39.2 °F24 %30.15 inEast (80°)10.4 mphClear
1:00 PM78.8 °F39.2 °F24 %30.15 in6.2 miEast (80°)10.4 mphScattered Clouds
2:00 PM80.6 °F42.8 °F26 %30.12 in5.0 miESE (110°)6.9 mph
3:00 PM83.0 °F39.0 °F12 %30.12 in5.0 miESE (120°)8.1 mph
3:00 PM82.4 °F41.0 °F23 %30.09 in5.0 miSE (130°)6.9 mph
4:00 PM82.4 °F33.8 °F17 %30.09 in5.0 miSSE (150°)4.6 mph
5:00 PM84.2 °F32.0 °F15 %30.06 in5.0 miSSE (150°)1.2 mph
6:00 PM80.0 °F46.0 °F20 %30.10 in5.0 miWest (280°)5.8 mph
6:00 PM78.8 °F42.8 °F28 %30.09 in5.0 miWest (280°)5.8 mph
7:00 PM73.4 °F50.0 °F44 %30.09 in5.0 miNW (320°)11.5 mph
8:00 PM71.6 °F51.8 °F50 %30.09 in5.0 miNW (320°)11.5 mph
9:00 PM69.0 °F58.0 °F58 %30.14 in5.0 miWNW (300°)8.1 mph
9:00 PM69.8 °F55.4 °F60 %30.12 in5.0 miNW (320°)10.4 mph
10:00 PM68.0 °F44.6 °F43 %30.12 in5.0 miNNE (30°)6.9 mph
11:00 PM68.0 °F48.2 °F49 %30.12 in5.0 miNNE (30°)8.1 mph
Hourly data recorded from GQPP, located miles away from Nouadhibou, Mauritania







STORIES FROM OUR PARTNERS